[[{"header":{"parameterUnit":"m.s-1","parameterCategory":2,"la1":30.2991,"la2":30.254,"lo1":-89.0895,"lo2":-89.0444,"dy":0.0017,"dx":0.0017,"nx":28,"ny":28,"refTime":"2024-12-01T09:00:00:Z","depth":"0","parameterNumber":2,"parameterNumberName":"U-component_of_CURRENTS"},"data":[0,0,0,0,0,0,0,0,0,0,0,0,0,0,0,0,0,0,0,0,0,0,0,0,0,0,0,0,0,0,0,0,0,0,0,0,0,0,0,0,0,0,0,0,0,0,0,0,0,0,0,0,0,0,0,0,0,0,-0.2677,-0.2677,0,-0.2696,-0.2696,-0.2696,-0.2655,-0.2654,-0.2653,-0.2652,-0.2646,-0.2647,-0.2648,0,0,0,0,0,0,0,0,0,0,0,0,0,-0.2622,-0.2623,-0.2677,-0.2677,-0.2678,-0.2696,-0.2696,-0.2696,-0.2655,-0.2654,-0.2652,-0.2651,-0.2646,-0.2647,-0.2648,0,0,0,0,0,0,0,0,0,0,0,0,0,-0.2642,-0.2623,-0.2677,-0.2661,-0.266,-0.2696,-0.2696,-0.2696,-0.2655,-0.2654,-0.2652,-0.265,-0.2646,-0.2647,-0.2648,-0.2691,0,0,-0.2653,-0.2653,0,0,0,0,0,0,0,0,-0.2641,-0.2643,-0.2663,-0.2662,-0.2661,-0.2673,-0.2675,-0.2694,-0.2656,-0.2655,-0.2652,-0.265,-0.2656,-0.2656,-0.2661,-0.2691,-0.2691,-0.2653,-0.2654,-0.2654,-0.2655,0,0,0,0,0,0,0,-0.2639,-0.2643,-0.2682,-0.2664,-0.2663,-0.2659,-0.2659,-0.2678,-0.2663,-0.2655,-0.2653,-0.2659,-0.2654,-0.266,-0.266,-0.2691,-0.2653,-0.2654,-0.2655,-0.2655,-0.2686,-0.2686,0,0,0,0,0,0,-0.2642,-0.2641,-0.2682,-0.2683,-0.2649,-0.2661,-0.2662,-0.2669,-0.2663,-0.2661,-0.266,-0.2657,-0.2658,-0.2659,-0.266,-0.2665,-0.2654,-0.2655,-0.2656,-0.2686,-0.2686,-0.2686,0,0,0,0,0,0,-0.2641,-0.2646,-0.2681,-0.2664,-0.2668,-0.2664,-0.2673,-0.2671,-0.2669,-0.2667,-0.2664,-0.266,-0.2657,-0.2658,-0.2663,-0.2666,-0.2656,-0.2657,-0.2686,-0.2686,-0.2686,-0.2705,0,0,0,0,0,0,-0.264,-0.2645,-0.2647,-0.2665,-0.267,-0.2695,-0.2675,-0.2672,-0.2677,-0.2672,-0.2667,-0.2665,-0.2656,-0.266,-0.2664,-0.2668,-0.2658,-0.2686,-0.2686,-0.2686,-0.2704,-0.2706,-0.2707,0,0,0,0,0,-0.2637,-0.2646,-0.2648,-0.2652,-0.2674,-0.2696,-0.2698,-0.2687,-0.2679,-0.2679,-0.267,-0.2665,-0.2662,-0.2662,-0.2666,-0.2671,-0.2686,-0.2686,-0.2686,-0.2704,-0.2705,-0.2707,0,0,0,0,0,0,-0.2619,-0.2643,-0.2645,-0.2659,-0.2674,-0.2689,-0.269,-0.2693,-0.269,-0.2682,-0.2675,-0.2673,-0.2675,-0.2674,-0.2674,-0.2677,-0.267,-0.2671,-0.2682,-0.2684,-0.2685,-0.2679,-0.266,0,0,0,0,0,-0.262,-0.263,-0.2655,-0.2664,-0.2674,-0.2686,-0.2692,-0.2692,-0.2696,-0.2692,-0.269,-0.2683,-0.2682,-0.2682,-0.2681,-0.2696,-0.2682,-0.2697,-0.2698,-0.2699,-0.2696,-0.2687,-0.2688,-0.2686,-0.2686,-0.2686,0,0,-0.2614,-0.2629,-0.2633,-0.266,-0.267,-0.2687,-0.2684,-0.2697,-0.2705,-0.2696,-0.2697,-0.2692,-0.2687,-0.2689,-0.269,-0.2687,-0.269,-0.2699,-0.27,-0.2696,-0.2687,-0.2688,-0.2688,-0.2686,-0.2686,-0.2686,0,0,-0.261,-0.2623,-0.2632,-0.265,-0.2673,-0.2685,-0.2692,-0.2711,-0.2709,-0.2722,-0.2708,-0.2704,-0.2712,-0.2701,-0.2699,-0.2711,-0.2697,-0.271,-0.2715,-0.2707,-0.2707,-0.2707,-0.268,-0.2677,-0.2711,-0.2711,-0.2711,0,-0.26,-0.2616,-0.2636,-0.2654,-0.2667,-0.2686,-0.2701,-0.2712,-0.2726,-0.2728,-0.2719,-0.2719,-0.2715,-0.2715,-0.271,-0.2714,-0.27,-0.2713,-0.2709,-0.2709,-0.2709,-0.268,-0.2677,-0.2712,-0.2712,-0.2712,-0.2712,0,-0.2605,-0.2619,-0.2627,-0.2655,-0.2674,-0.2689,-0.2715,-0.2727,-0.2731,-0.2739,-0.274,-0.2733,-0.2729,-0.2728,-0.2724,-0.2721,-0.2707,-0.2713,-0.2707,-0.271,-0.268,-0.2676,-0.2713,-0.2713,-0.2713,-0.2713,0,0,-0.2573,-0.2621,-0.2621,-0.2634,-0.2675,-0.2689,-0.2713,-0.2736,-0.2745,-0.2751,-0.2755,-0.2749,-0.2745,-0.2741,-0.2735,-0.2727,-0.271,-0.2719,-0.2718,-0.2693,-0.2676,-0.2583,-0.2569,-0.2718,-0.2718,-0.2717,-0.2653,0,-0.2565,-0.2591,-0.2622,-0.2643,-0.2658,-0.2693,-0.2713,-0.2737,-0.2752,-0.2763,-0.2759,-0.2759,-0.2751,-0.2747,-0.2739,-0.2726,-0.2703,-0.2726,-0.2675,-0.2673,-0.2592,-0.2563,-0.2452,-0.2377,-0.2649,-0.2648,-0.2648,0,-0.255,-0.2572,-0.259,-0.2635,-0.2646,-0.2663,-0.2697,-0.272,-0.275,-0.2762,-0.2767,-0.2769,-0.2762,-0.2752,-0.2719,-0.2736,-0.2701,-0.2683,-0.268,-0.2582,-0.2572,-0.242,-0.2361,-0.2335,-0.2642,-0.2643,-0.2643,0,-0.2497,-0.2545,-0.2555,-0.257,-0.2627,-0.2639,-0.2667,-0.2707,-0.2723,-0.2756,-0.2762,-0.2768,-0.2755,-0.2736,-0.2695,-0.2711,-0.2646,-0.2667,-0.2541,-0.2534,-0.2422,-0.2405,-0.2332,-0.2623,-0.2623,-0.2623,-0.2624,0,-0.2465,-0.247,-0.2528,-0.2531,-0.2542,-0.2602,-0.2616,-0.2651,-0.2695,-0.2701,-0.2747,-0.2739,-0.2749,-0.2717,-0.2691,-0.2591,-0.2638,-0.2524,-0.2507,-0.2423,-0.2408,-0.2367,-0.2393,-0.2621,-0.2622,-0.2622,-0.2622,0,-0.2388,-0.2431,-0.2441,-0.2497,-0.2512,-0.2515,-0.2572,-0.2583,-0.2642,-0.265,-0.2658,-0.2704,-0.2665,-0.2648,-0.2606,-0.2557,-0.2439,-0.2443,-0.233,-0.23,-0.216,-0.2191,-0.2095,-0.2037,-0.2301,-0.2298,-0.2296,0,-0.2344,-0.2341,-0.2389,-0.239,-0.2408,-0.2432,-0.2445,-0.2529,-0.2546,-0.2613,-0.2603,-0.2596,-0.2551,-0.246,-0.2389,-0.23,-0.231,-0.2143,-0.215,-0.2114,-0.2138,-0.2169,-0.2131,-0.2011,-0.2006,-0.2002,-0.1999,0,-0.2247,-0.2265,-0.2273,-0.2281,-0.2291,-0.2307,-0.2339,-0.235,-0.244,-0.2454,-0.2459,-0.2436,-0.2361,-0.2226,-0.2119,-0.2063,-0.2083,-0.2063,-0.206,-0.1919,-0.1914,-0.1862,-0.2094,-0.1967,-0.197,-0.1972,-0.1974,-0.1975,-0.2155,-0.2138,-0.2151,-0.2144,-0.2161,-0.2156,-0.2123,-0.2176,-0.2181,-0.2173,-0.2253,-0.218,-0.2103,-0.1939,-0.1874,-0.1735,-0.1826,-0.1689,-0.1733,-0.1771,-0.1697,-0.1838,-0.1675,-0.1676,-0.1677,-0.1679,-0.168,0,-0.2024,-0.202,-0.2013,-0.1998,-0.1959,-0.2016,-0.2022,-0.1969,-0.1923,-0.196,-0.1931,-0.1863,-0.1709,-0.1661,-0.1528,-0.144,-0.1424,-0.1415,-0.1449,-0.143,-0.1567,-0.1534,-0.1289,-0.1289,-0.1289,-0.129,-0.129,-0.129,-0.1955,-0.1899,-0.1899,-0.1789,-0.1778,-0.1679,-0.1649,-0.1603,-0.1597,-0.1529,-0.1519,-0.1555,-0.1522,-0.154,-0.139,-0.131,-0.1295,-0.1237,-0.1288,-0.1412,-0.1443,-0.1472,-0.1446,-0.1186,-0.1186,-0.1088,-0.1088,-0.1087]},{"header":{"parameterUnit":"m.s-1","parameterCategory":2,"la1":30.2991,"la2":30.254,"lo1":-89.0895,"lo2":-89.0444,"dy":0.0017,"dx":0.0017,"nx":28,"ny":28,"refTime":"2024-12-01T09:00:00:Z","depth":"0","parameterNumber":3,"parameterNumberName":"V-component_of_CURRENTS"},"data":[0,0,0,0,0,0,0,0,0,0,0,0,0,0,0,0,0,0,0,0,0,0,0,0,0,0,0,0,0,0,0,0,0,0,0,0,0,0,0,0,0,0,0,0,0,0,0,0,0,0,0,0,0,0,0,0,0,0,-0.0551,-0.055,0,-0.047,-0.0469,-0.0467,-0.0406,-0.0406,-0.0405,-0.0405,-0.0263,-0.026,-0.0256,0,0,0,0,0,0,0,0,0,0,0,0,0,-0.0601,-0.0601,-0.0551,-0.055,-0.0549,-0.047,-0.0468,-0.0467,-0.0406,-0.0406,-0.0405,-0.0405,-0.0264,-0.026,-0.0256,0,0,0,0,0,0,0,0,0,0,0,0,0,-0.0554,-0.0601,-0.0551,-0.051,-0.0506,-0.047,-0.0468,-0.0467,-0.0407,-0.0406,-0.0405,-0.0405,-0.0265,-0.026,-0.0255,-0.0237,0,0,-0.024,-0.0238,0,0,0,0,0,0,0,0,-0.0557,-0.0552,-0.0517,-0.0513,-0.0508,-0.0449,-0.0434,-0.0387,-0.0407,-0.0443,-0.0405,-0.0404,-0.0321,-0.0311,-0.0296,-0.023,-0.0224,-0.0239,-0.0236,-0.0234,-0.0233,0,0,0,0,0,0,0,-0.0561,-0.0555,-0.0517,-0.0516,-0.0511,-0.0478,-0.0471,-0.0425,-0.0384,-0.0439,-0.0435,-0.0429,-0.0317,-0.0301,-0.0292,-0.0222,-0.0239,-0.0235,-0.0232,-0.023,-0.0124,-0.0124,0,0,0,0,0,0,-0.0577,-0.0559,-0.052,-0.0515,-0.0533,-0.0478,-0.047,-0.0467,-0.0386,-0.0374,-0.0429,-0.0426,-0.031,-0.0298,-0.0287,-0.0261,-0.0234,-0.0229,-0.0226,-0.0124,-0.0124,-0.0124,0,0,0,0,0,0,-0.0578,-0.0574,-0.0523,-0.0536,-0.0527,-0.0479,-0.0475,-0.0466,-0.0448,-0.0379,-0.0365,-0.0422,-0.0309,-0.0294,-0.0251,-0.0255,-0.0227,-0.0222,-0.0123,-0.0124,-0.0124,-0.021,0,0,0,0,0,0,-0.058,-0.0576,-0.058,-0.0537,-0.0527,-0.0507,-0.0476,-0.0465,-0.0446,-0.0441,-0.0368,-0.0354,-0.0307,-0.0259,-0.0246,-0.0248,-0.0218,-0.0123,-0.0124,-0.0124,-0.0206,-0.0213,-0.0218,0,0,0,0,0,-0.0582,-0.0593,-0.058,-0.0576,-0.0534,-0.0508,-0.05,-0.0461,-0.0447,-0.0443,-0.0396,-0.0356,-0.0253,-0.0256,-0.024,-0.024,-0.0123,-0.0123,-0.0124,-0.0204,-0.0212,-0.0218,0,0,0,0,0,0,-0.0615,-0.0587,-0.0572,-0.0573,-0.0545,-0.0498,-0.0493,-0.0468,-0.0429,-0.0424,-0.0358,-0.0342,-0.0305,-0.0262,-0.0267,-0.0211,-0.0181,-0.0179,-0.0247,-0.0254,-0.026,-0.0274,-0.0214,0,0,0,0,0,-0.0627,-0.0628,-0.0591,-0.0592,-0.0582,-0.0539,-0.0525,-0.05,-0.046,-0.0443,-0.0393,-0.034,-0.0296,-0.0268,-0.0222,-0.0191,-0.0147,-0.0181,-0.0187,-0.0192,-0.0193,-0.015,-0.0152,-0.0126,-0.0126,-0.0126,0,0,-0.0639,-0.0624,-0.0624,-0.0599,-0.0575,-0.057,-0.0529,-0.0512,-0.0505,-0.0433,-0.0407,-0.0358,-0.0293,-0.026,-0.024,-0.0224,-0.0174,-0.0193,-0.0198,-0.0196,-0.015,-0.0153,-0.0155,-0.0126,-0.0126,-0.0126,0,0,-0.0669,-0.0652,-0.0665,-0.0648,-0.0622,-0.0595,-0.0594,-0.0552,-0.0529,-0.0499,-0.0448,-0.0406,-0.0337,-0.0293,-0.0262,-0.0272,-0.0209,-0.0256,-0.0293,-0.0252,-0.0254,-0.0255,-0.0196,-0.0191,-0.0257,-0.0257,-0.0257,0,-0.0687,-0.0697,-0.0663,-0.0671,-0.0665,-0.0612,-0.0624,-0.0593,-0.0541,-0.0525,-0.0501,-0.0407,-0.0352,-0.0312,-0.0314,-0.0285,-0.0246,-0.0275,-0.0261,-0.0261,-0.0261,-0.02,-0.0193,-0.0261,-0.0261,-0.026,-0.026,0,-0.0726,-0.0733,-0.0739,-0.0733,-0.072,-0.072,-0.0679,-0.0661,-0.0627,-0.0591,-0.0545,-0.0473,-0.0417,-0.0393,-0.0353,-0.0326,-0.0293,-0.0277,-0.0248,-0.0269,-0.0203,-0.0195,-0.0267,-0.0266,-0.0264,-0.0263,0,0,-0.0767,-0.0769,-0.077,-0.0783,-0.0755,-0.0751,-0.0739,-0.0712,-0.0703,-0.0645,-0.0625,-0.055,-0.0507,-0.0469,-0.0412,-0.0372,-0.0332,-0.0329,-0.0325,-0.0279,-0.0227,-0.0168,-0.0152,-0.0318,-0.0318,-0.0317,-0.0179,0,-0.0808,-0.0847,-0.0829,-0.0858,-0.0874,-0.083,-0.0824,-0.079,-0.0745,-0.0708,-0.0631,-0.0587,-0.0536,-0.0509,-0.0463,-0.036,-0.0316,-0.037,-0.0205,-0.0199,-0.0152,-0.0143,-0.0112,0.0016,-0.017,-0.0169,-0.0168,0,-0.0853,-0.0874,-0.0917,-0.0929,-0.093,-0.0935,-0.0916,-0.0902,-0.0835,-0.0797,-0.0739,-0.0671,-0.0592,-0.0553,-0.0399,-0.0437,-0.0343,-0.0265,-0.0258,-0.0168,-0.0126,0.0008,0.0039,0.0164,-0.0155,-0.0156,-0.0157,0,-0.0907,-0.0934,-0.0974,-0.0979,-0.0979,-0.0987,-0.098,-0.0932,-0.0916,-0.0851,-0.0822,-0.0725,-0.0656,-0.0547,-0.0374,-0.0391,-0.0195,-0.0197,-0.0054,-0.0048,0.003,0.0042,0.0195,-0.01,-0.01,-0.0101,-0.0101,0,-0.0962,-0.0992,-0.1005,-0.1028,-0.1068,-0.1045,-0.1063,-0.1036,-0.0987,-0.0959,-0.0872,-0.0812,-0.0652,-0.0515,-0.0385,-0.0177,-0.0199,-0.0051,-0.0009,0.0003,0.001,0.0165,0.0208,-0.0096,-0.0097,-0.0098,-0.0099,0,-0.1014,-0.1023,-0.107,-0.1089,-0.1097,-0.1125,-0.1122,-0.1124,-0.1071,-0.1027,-0.1007,-0.0862,-0.0676,-0.0499,-0.0285,-0.0171,0.0095,0.0079,0.0096,0.0136,0.0361,0.0397,0.0602,0.0675,0.0246,0.0248,0.025,0,-0.1043,-0.1074,-0.112,-0.1151,-0.1163,-0.1193,-0.1206,-0.1172,-0.1159,-0.1043,-0.1018,-0.0836,-0.0682,-0.0341,-0.0112,0.0135,0.022,0.0301,0.0268,0.0392,0.0463,0.0483,0.053,0.0347,0.035,0.0352,0.0354,0,-0.1094,-0.1109,-0.1148,-0.1214,-0.1246,-0.1277,-0.1286,-0.1286,-0.1219,-0.115,-0.101,-0.0877,-0.0539,-0.0234,0.0085,0.023,0.0394,0.0351,0.0475,0.0555,0.0593,0.0677,0.0248,0.0372,0.037,0.0369,0.0368,0.0367,-0.112,-0.1163,-0.1212,-0.1271,-0.1311,-0.1338,-0.1343,-0.1316,-0.1266,-0.1124,-0.1002,-0.0755,-0.0347,0.0112,0.0278,0.0619,0.0572,0.0707,0.0743,0.0755,0.0817,0.0437,0.0604,0.0603,0.0603,0.0602,0.0602,0,-0.1148,-0.1196,-0.1262,-0.1324,-0.1365,-0.1373,-0.1374,-0.1334,-0.1246,-0.1081,-0.0908,-0.0433,-0.0028,0.0338,0.0806,0.099,0.1015,0.108,0.111,0.114,0.0812,0.0805,0.1029,0.1029,0.1029,0.1028,0.1028,0.1028,-0.1165,-0.1232,-0.127,-0.1344,-0.1382,-0.1395,-0.1383,-0.1289,-0.1161,-0.0847,-0.0563,-0.0345,0.0169,0.0875,0.1293,0.1335,0.147,0.1472,0.1542,0.1303,0.127,0.1239,0.1244,0.1556,0.1557,0.1853,0.1856,0.1859]}],[{"header":{"parameterUnit":"m.s-1","parameterCategory":2,"la1":30.2991,"la2":30.254,"lo1":-89.0895,"lo2":-89.0444,"dy":0.0017,"dx":0.0017,"nx":28,"ny":28,"refTime":"2024-12-01T09:00:00:Z","depth":"2","parameterNumber":2,"parameterNumberName":"U-component_of_CURRENTS"},"data":[0,0,0,0,0,0,0,0,0,0,0,0,0,0,0,0,0,0,0,0,0,0,0,0,0,0,0,0,0,0,0,0,0,0,0,0,0,0,0,0,0,0,0,0,0,0,0,0,0,0,0,0,0,0,0,0,0,0,-0.2403,-0.2403,0,-0.2429,-0.2429,-0.2429,-0.2401,-0.24,-0.2399,-0.2398,-0.2403,-0.2404,-0.2405,0,0,0,0,0,0,0,0,0,0,0,0,0,-0.2342,-0.2343,-0.2403,-0.2403,-0.2404,-0.2429,-0.2429,-0.2429,-0.2401,-0.24,-0.2399,-0.2397,-0.2403,-0.2404,-0.2405,0,0,0,0,0,0,0,0,0,0,0,0,0,-0.2367,-0.2344,-0.2403,-0.2394,-0.2393,-0.2429,-0.2429,-0.2429,-0.2401,-0.24,-0.2398,-0.2397,-0.2402,-0.2404,-0.2405,-0.2442,0,0,-0.241,-0.2411,0,0,0,0,0,0,0,0,-0.2366,-0.2369,-0.2395,-0.2394,-0.2394,-0.2412,-0.241,-0.2433,-0.2401,-0.2396,-0.2398,-0.2396,-0.2406,-0.2407,-0.2413,-0.2443,-0.2443,-0.241,-0.2411,-0.2412,-0.2412,0,0,0,0,0,0,0,-0.2364,-0.2368,-0.2411,-0.2395,-0.2395,-0.2394,-0.2395,-0.2414,-0.2407,-0.2397,-0.2395,-0.2401,-0.2405,-0.2412,-0.2413,-0.2443,-0.241,-0.2411,-0.2412,-0.2413,-0.2454,-0.2454,0,0,0,0,0,0,-0.2365,-0.2366,-0.241,-0.2412,-0.2378,-0.2396,-0.2398,-0.2406,-0.2407,-0.2407,-0.2403,-0.24,-0.241,-0.2411,-0.2413,-0.2425,-0.2412,-0.2413,-0.2414,-0.2454,-0.2454,-0.2454,0,0,0,0,0,0,-0.2364,-0.2369,-0.2409,-0.2391,-0.2396,-0.2399,-0.2408,-0.2407,-0.2411,-0.2412,-0.241,-0.2407,-0.2409,-0.2411,-0.2422,-0.2426,-0.2414,-0.2415,-0.2453,-0.2454,-0.2454,-0.2471,0,0,0,0,0,0,-0.2362,-0.2369,-0.2372,-0.2391,-0.2397,-0.2425,-0.241,-0.2409,-0.2418,-0.2415,-0.2416,-0.2415,-0.2408,-0.242,-0.2423,-0.2428,-0.2416,-0.2453,-0.2453,-0.2454,-0.247,-0.2472,-0.2473,0,0,0,0,0,-0.236,-0.2369,-0.2372,-0.2378,-0.2403,-0.2426,-0.2429,-0.2424,-0.242,-0.2423,-0.2421,-0.2415,-0.2424,-0.2422,-0.2426,-0.2431,-0.2453,-0.2453,-0.2454,-0.2469,-0.2471,-0.2473,0,0,0,0,0,0,-0.2341,-0.2368,-0.2372,-0.2387,-0.2404,-0.2421,-0.2425,-0.2431,-0.2435,-0.243,-0.2427,-0.2426,-0.2435,-0.2434,-0.2432,-0.2442,-0.2434,-0.2436,-0.2445,-0.2447,-0.2448,-0.2442,-0.2417,0,0,0,0,0,-0.2343,-0.2355,-0.2381,-0.2392,-0.2402,-0.2418,-0.2427,-0.243,-0.2439,-0.2438,-0.2441,-0.244,-0.2443,-0.2445,-0.2448,-0.2465,-0.2451,-0.2468,-0.2469,-0.247,-0.2467,-0.2457,-0.2457,-0.2455,-0.2455,-0.2455,0,0,-0.2338,-0.2354,-0.236,-0.2389,-0.2401,-0.242,-0.2418,-0.2436,-0.2446,-0.2441,-0.2451,-0.2451,-0.2449,-0.2457,-0.246,-0.2456,-0.2461,-0.2471,-0.2472,-0.2468,-0.2457,-0.2457,-0.2457,-0.2456,-0.2456,-0.2456,0,0,-0.2336,-0.2351,-0.2361,-0.238,-0.2406,-0.242,-0.2428,-0.2452,-0.2453,-0.2473,-0.2464,-0.2465,-0.248,-0.2471,-0.247,-0.2486,-0.2471,-0.2489,-0.2492,-0.2483,-0.2483,-0.2482,-0.2455,-0.2452,-0.2488,-0.2488,-0.2488,0,-0.2327,-0.2346,-0.2367,-0.2385,-0.24,-0.2422,-0.2439,-0.2452,-0.2474,-0.2478,-0.2474,-0.2485,-0.2483,-0.2485,-0.2484,-0.2489,-0.2476,-0.2487,-0.2484,-0.2484,-0.2483,-0.2456,-0.2452,-0.2489,-0.2489,-0.2489,-0.2489,0,-0.2335,-0.2352,-0.2361,-0.2391,-0.241,-0.2428,-0.2456,-0.2472,-0.2482,-0.2493,-0.2501,-0.2499,-0.25,-0.2501,-0.2498,-0.2496,-0.2485,-0.2489,-0.248,-0.2485,-0.2455,-0.2451,-0.249,-0.249,-0.249,-0.2489,0,0,-0.2305,-0.2356,-0.2357,-0.2371,-0.2415,-0.243,-0.2457,-0.2482,-0.2494,-0.2507,-0.2516,-0.2516,-0.2514,-0.2512,-0.2508,-0.2499,-0.2482,-0.2494,-0.2493,-0.2465,-0.2448,-0.2367,-0.2355,-0.2489,-0.2489,-0.2489,-0.2425,0,-0.23,-0.233,-0.236,-0.2386,-0.2403,-0.2438,-0.2461,-0.2487,-0.2506,-0.2522,-0.252,-0.2527,-0.252,-0.252,-0.251,-0.2498,-0.2475,-0.2498,-0.2447,-0.2445,-0.2372,-0.2349,-0.2185,-0.2108,-0.2421,-0.2421,-0.242,0,-0.2288,-0.2313,-0.2337,-0.2383,-0.2394,-0.2413,-0.245,-0.2476,-0.2508,-0.2524,-0.2532,-0.2538,-0.2531,-0.2523,-0.2488,-0.2506,-0.2472,-0.2454,-0.2452,-0.2367,-0.2357,-0.2155,-0.2089,-0.2414,-0.2414,-0.2415,-0.2415,0,-0.2241,-0.2291,-0.2307,-0.2323,-0.2381,-0.2395,-0.2425,-0.2467,-0.2485,-0.2521,-0.2531,-0.2536,-0.2528,-0.2506,-0.2469,-0.2482,-0.2421,-0.2435,-0.2322,-0.2316,-0.216,-0.214,-0.2392,-0.2392,-0.2392,-0.2392,-0.2392,0,-0.2214,-0.2224,-0.2285,-0.2291,-0.2308,-0.2365,-0.2384,-0.2419,-0.2466,-0.2475,-0.252,-0.2515,-0.2523,-0.2495,-0.2466,-0.2372,-0.2414,-0.2307,-0.229,-0.216,-0.2142,-0.24,-0.2402,-0.2389,-0.239,-0.239,-0.2391,0,-0.2145,-0.219,-0.2207,-0.2267,-0.2282,-0.229,-0.2349,-0.2362,-0.2422,-0.2436,-0.2446,-0.2489,-0.2452,-0.2437,-0.2393,-0.2346,-0.2285,-0.2237,-0.2074,-0.2038,-0.2188,-0.2191,-0.2108,-0.2104,-0.2101,-0.2099,-0.2097,0,-0.2107,-0.2109,-0.2164,-0.217,-0.2192,-0.2221,-0.2237,-0.2317,-0.2336,-0.2403,-0.2396,-0.2393,-0.2347,-0.226,-0.2188,-0.21,-0.2182,-0.1902,-0.1894,-0.2164,-0.2157,-0.2165,-0.2173,-0.169,-0.1685,-0.1681,-0.1678,0,-0.2023,-0.2045,-0.2059,-0.2074,-0.209,-0.2109,-0.2144,-0.2155,-0.2241,-0.2255,-0.2254,-0.2228,-0.2159,-0.1995,-0.1899,-0.1836,-0.1911,-0.1811,-0.2121,-0.1795,-0.1767,-0.1762,-0.1783,-0.1639,-0.1643,-0.1646,-0.1648,-0.165,-0.1944,-0.1933,-0.1952,-0.1951,-0.1975,-0.1971,-0.1938,-0.1987,-0.1987,-0.1972,-0.2047,-0.1949,-0.1923,-0.1686,-0.1583,-0.1512,-0.165,-0.1578,-0.1592,-0.1611,-0.1582,-0.1551,-0.1376,-0.1378,-0.138,-0.1381,-0.1383,0,-0.1829,-0.1828,-0.1827,-0.1819,-0.1788,-0.1844,-0.1847,-0.1789,-0.1733,-0.1751,-0.1713,-0.1522,-0.1396,-0.1379,-0.1204,-0.1163,-0.1166,-0.1115,-0.1124,-0.1162,-0.1195,-0.1147,-0.0824,-0.0822,-0.0821,-0.0819,0,0,-0.177,-0.1722,-0.172,-0.1624,-0.1617,-0.1524,-0.1492,-0.1434,-0.141,-0.1315,-0.1265,-0.1334,-0.1348,-0.1097,-0.1027,-0.0897,-0.1023,-0.0849,-0.1297,-0.1347,-0.1379,-0.146,-0.1427,0,0,0,0,0]},{"header":{"parameterUnit":"m.s-1","parameterCategory":2,"la1":30.2991,"la2":30.254,"lo1":-89.0895,"lo2":-89.0444,"dy":0.0017,"dx":0.0017,"nx":28,"ny":28,"refTime":"2024-12-01T09:00:00:Z","depth":"2","parameterNumber":3,"parameterNumberName":"V-component_of_CURRENTS"},"data":[0,0,0,0,0,0,0,0,0,0,0,0,0,0,0,0,0,0,0,0,0,0,0,0,0,0,0,0,0,0,0,0,0,0,0,0,0,0,0,0,0,0,0,0,0,0,0,0,0,0,0,0,0,0,0,0,0,0,-0.04,-0.0399,0,-0.033,-0.0329,-0.0328,-0.0274,-0.0274,-0.0273,-0.0273,-0.0148,-0.0146,-0.0143,0,0,0,0,0,0,0,0,0,0,0,0,0,-0.0438,-0.0437,-0.04,-0.0399,-0.0398,-0.033,-0.0329,-0.0328,-0.0274,-0.0274,-0.0273,-0.0273,-0.0149,-0.0146,-0.0142,0,0,0,0,0,0,0,0,0,0,0,0,0,-0.0399,-0.0437,-0.04,-0.0364,-0.036,-0.0331,-0.0329,-0.0328,-0.0274,-0.0274,-0.0273,-0.0272,-0.015,-0.0146,-0.0142,-0.0127,0,0,-0.0128,-0.0126,0,0,0,0,0,0,0,0,-0.0401,-0.0397,-0.037,-0.0367,-0.0362,-0.0311,-0.0297,-0.0258,-0.0274,-0.0306,-0.0273,-0.0272,-0.0199,-0.0191,-0.0178,-0.0121,-0.0116,-0.0128,-0.0125,-0.0123,-0.0122,0,0,0,0,0,0,0,-0.0404,-0.04,-0.0371,-0.037,-0.0365,-0.0335,-0.0329,-0.0289,-0.0255,-0.0303,-0.0299,-0.0294,-0.0196,-0.0182,-0.0174,-0.0114,-0.0128,-0.0124,-0.0121,-0.012,-0.003,-0.003,0,0,0,0,0,0,-0.0418,-0.0403,-0.0373,-0.0369,-0.0382,-0.0335,-0.0328,-0.0327,-0.0256,-0.0245,-0.0294,-0.0291,-0.019,-0.018,-0.017,-0.0142,-0.0123,-0.0119,-0.0117,-0.0029,-0.003,-0.003,0,0,0,0,0,0,-0.042,-0.0417,-0.0376,-0.0385,-0.0378,-0.0336,-0.0334,-0.0326,-0.0312,-0.025,-0.0238,-0.0288,-0.0189,-0.0176,-0.0139,-0.0137,-0.0117,-0.0113,-0.0029,-0.003,-0.003,-0.0091,0,0,0,0,0,0,-0.0421,-0.0418,-0.0423,-0.0386,-0.0378,-0.0364,-0.0335,-0.0325,-0.031,-0.0306,-0.0241,-0.0229,-0.0188,-0.0147,-0.0135,-0.0131,-0.011,-0.0029,-0.0029,-0.003,-0.0088,-0.0093,-0.0097,0,0,0,0,0,-0.0423,-0.0435,-0.0424,-0.042,-0.0386,-0.0364,-0.0357,-0.0324,-0.0311,-0.0308,-0.0267,-0.0231,-0.0141,-0.0143,-0.013,-0.0124,-0.0029,-0.0029,-0.003,-0.0086,-0.0092,-0.0097,0,0,0,0,0,0,-0.0452,-0.0429,-0.0416,-0.042,-0.0396,-0.0356,-0.0352,-0.033,-0.0296,-0.0292,-0.0234,-0.0219,-0.0187,-0.015,-0.0154,-0.0101,-0.0079,-0.0077,-0.0127,-0.0131,-0.0136,-0.0145,-0.0106,0,0,0,0,0,-0.0463,-0.0466,-0.0435,-0.0438,-0.043,-0.0393,-0.0381,-0.0359,-0.0325,-0.031,-0.0266,-0.0219,-0.018,-0.0153,-0.0115,-0.0084,-0.0043,-0.0072,-0.0076,-0.008,-0.0079,-0.0025,-0.0024,-0.0032,-0.0032,-0.0032,0,0,-0.0474,-0.0463,-0.0464,-0.0445,-0.0424,-0.0418,-0.0384,-0.0371,-0.0361,-0.0301,-0.0276,-0.0235,-0.0177,-0.0145,-0.0127,-0.0112,-0.0057,-0.0081,-0.0085,-0.0081,-0.0025,-0.0024,-0.0023,-0.0032,-0.0032,-0.0032,0,0,-0.0502,-0.049,-0.0502,-0.0488,-0.0466,-0.0442,-0.0442,-0.0405,-0.0383,-0.0358,-0.0312,-0.0272,-0.0214,-0.0168,-0.0138,-0.0143,-0.0088,-0.0133,-0.0154,-0.0101,-0.01,-0.0098,-0.0051,-0.0044,-0.0129,-0.0129,-0.0129,0,-0.0517,-0.0527,-0.0501,-0.0507,-0.05,-0.0457,-0.0464,-0.0436,-0.0392,-0.0372,-0.0359,-0.0269,-0.0222,-0.0171,-0.0174,-0.0151,-0.0116,-0.0139,-0.0107,-0.0104,-0.0102,-0.0053,-0.0045,-0.0132,-0.0132,-0.0131,-0.0131,0,-0.0551,-0.0557,-0.0563,-0.0557,-0.0544,-0.0545,-0.0506,-0.0488,-0.046,-0.0424,-0.0375,-0.0313,-0.0257,-0.0237,-0.0205,-0.0162,-0.0142,-0.0124,-0.0095,-0.0104,-0.0052,-0.0043,-0.0136,-0.0135,-0.0134,-0.0134,0,0,-0.0588,-0.0589,-0.059,-0.0597,-0.0572,-0.0567,-0.055,-0.0518,-0.0503,-0.0452,-0.0422,-0.0353,-0.0314,-0.0278,-0.0229,-0.0181,-0.0133,-0.015,-0.0146,-0.0106,-0.002,0.001,0.0023,-0.0111,-0.011,-0.0109,0.0007,0,-0.0622,-0.0654,-0.0636,-0.0655,-0.0666,-0.0624,-0.0612,-0.0575,-0.0531,-0.0491,-0.0414,-0.0372,-0.033,-0.0306,-0.025,-0.0163,-0.0111,-0.0167,-0.0014,-0.0009,0.0016,0.0034,0.0016,0.0119,0.0016,0.0018,0.0019,0,-0.066,-0.0677,-0.0709,-0.0708,-0.0708,-0.0709,-0.0679,-0.0661,-0.0588,-0.0553,-0.0488,-0.0428,-0.0345,-0.0316,-0.0166,-0.0205,-0.012,-0.0052,-0.0045,0.0012,0.0038,0.0114,0.0141,0.0035,0.0034,0.0033,0.0032,0,-0.0706,-0.0723,-0.0753,-0.0755,-0.0747,-0.0748,-0.0737,-0.0682,-0.0664,-0.0591,-0.0564,-0.0458,-0.0403,-0.0287,-0.0144,-0.0155,0.0023,0.0029,0.0139,0.0142,0.0173,0.0177,0.0136,0.0136,0.0136,0.0135,0.0135,0,-0.0751,-0.0773,-0.0781,-0.0799,-0.0828,-0.0799,-0.0806,-0.0775,-0.0723,-0.0697,-0.0602,-0.055,-0.0394,-0.0271,-0.0149,0.003,0.0026,0.0144,0.0179,0.0151,0.0151,0.0113,0.0109,0.014,0.0139,0.0138,0.0137,0,-0.0796,-0.0802,-0.0838,-0.0848,-0.0854,-0.0875,-0.0867,-0.0863,-0.0808,-0.0769,-0.0749,-0.0611,-0.0448,-0.0281,-0.0079,0.0027,0.0189,0.0253,0.0207,0.0234,0.0272,0.0263,0.0383,0.0385,0.0387,0.0389,0.039,0,-0.0821,-0.0847,-0.0885,-0.0912,-0.0921,-0.0944,-0.0956,-0.0916,-0.0903,-0.0797,-0.0778,-0.0618,-0.0483,-0.0176,0.0032,0.0261,0.0254,0.037,0.0349,0.0278,0.03,0.0288,0.0277,0.0367,0.0368,0.0368,0.0369,0,-0.0866,-0.088,-0.0912,-0.0976,-0.1005,-0.1031,-0.104,-0.1041,-0.0977,-0.0915,-0.0797,-0.068,-0.0386,-0.013,0.0156,0.0285,0.0329,0.0394,0.0353,0.0299,0.027,0.0288,0.0277,0.0376,0.0375,0.0375,0.0374,0.0374,-0.0892,-0.0931,-0.0977,-0.1031,-0.107,-0.11,-0.1106,-0.1083,-0.1041,-0.0916,-0.0813,-0.0595,-0.0371,0.0054,0.0246,0.0426,0.0418,0.0466,0.0461,0.0455,0.0425,0.04,0.0525,0.0525,0.0525,0.0525,0.0525,0,-0.0921,-0.0965,-0.1027,-0.1086,-0.1128,-0.1137,-0.1144,-0.1107,-0.1035,-0.0892,-0.0742,-0.046,-0.0175,0.0062,0.0352,0.0514,0.0492,0.0538,0.0474,0.0467,0.0461,0.0428,0.053,0.0531,0.0531,0.0531,0,0,-0.0938,-0.1002,-0.1036,-0.1113,-0.1152,-0.1174,-0.1167,-0.1084,-0.0969,-0.0796,-0.0624,-0.0422,-0.0144,0.0059,0.0257,0.0407,0.0394,0.0421,0.0402,0.0297,0.0289,0.0409,0.0349,0,0,0,0,0]}],[{"header":{"parameterUnit":"m.s-1","parameterCategory":2,"la1":30.2991,"la2":30.254,"lo1":-89.0895,"lo2":-89.0444,"dy":0.0017,"dx":0.0017,"nx":28,"ny":28,"refTime":"2024-12-01T09:00:00:Z","depth":"4","parameterNumber":2,"parameterNumberName":"U-component_of_CURRENTS"},"data":[0,0,0,0,0,0,0,0,0,0,0,0,0,0,0,0,0,0,0,0,0,0,0,0,0,0,0,0,0,0,0,0,0,0,0,0,0,0,0,0,0,0,0,0,0,0,0,0,0,0,0,0,0,0,0,0,0,0,-0.171,-0.1711,0,-0.1777,-0.1777,-0.1778,-0.1814,-0.1814,-0.1814,-0.1815,-0.1893,-0.1895,-0.1896,0,0,0,0,0,0,0,0,0,0,0,0,0,-0.1619,-0.162,-0.171,-0.1711,-0.1712,-0.1777,-0.1778,-0.1778,-0.1814,-0.1814,-0.1815,-0.1815,-0.1892,-0.1894,-0.1897,0,0,0,0,0,0,0,0,0,0,0,0,0,-0.1668,-0.1621,-0.171,-0.1739,-0.1742,-0.1777,-0.1778,-0.1779,-0.1814,-0.1814,-0.1815,-0.1815,-0.1891,-0.1894,-0.1897,-0.1908,0,0,-0.1906,-0.1907,0,0,0,0,0,0,0,0,-0.1665,-0.1671,-0.1734,-0.1737,-0.1741,-0.1789,-0.1774,-0.1823,-0.1814,-0.1785,-0.1815,-0.1815,-0.186,-0.1865,-0.1875,-0.1912,-0.1915,-0.1906,-0.1908,-0.1909,-0.191,0,0,0,0,0,0,0,-0.1662,-0.1668,-0.1735,-0.1735,-0.1739,-0.175,-0.1757,-0.1783,-0.1819,-0.1788,-0.1791,-0.18,-0.1862,-0.1872,-0.1877,-0.1916,-0.1906,-0.1908,-0.191,-0.1911,-0.2007,-0.2008,0,0,0,0,0,0,-0.1656,-0.1665,-0.1733,-0.1737,-0.1704,-0.1751,-0.1759,-0.1772,-0.1819,-0.1826,-0.18,-0.1802,-0.1867,-0.1874,-0.188,-0.1942,-0.1909,-0.1911,-0.1913,-0.2006,-0.2007,-0.2008,0,0,0,0,0,0,-0.1654,-0.1661,-0.173,-0.1704,-0.1713,-0.1753,-0.1766,-0.1773,-0.1812,-0.1828,-0.1836,-0.1835,-0.1868,-0.1876,-0.1923,-0.1943,-0.1913,-0.1915,-0.2005,-0.2006,-0.2007,-0.2036,0,0,0,0,0,0,-0.1651,-0.166,-0.168,-0.1703,-0.1715,-0.1764,-0.1767,-0.1774,-0.1816,-0.1819,-0.186,-0.1866,-0.1868,-0.1918,-0.1925,-0.1947,-0.1917,-0.2004,-0.2006,-0.2007,-0.2034,-0.2038,-0.2042,0,0,0,0,0,-0.1647,-0.1666,-0.1681,-0.169,-0.1737,-0.1765,-0.1772,-0.18,-0.1817,-0.1836,-0.1865,-0.1866,-0.1933,-0.1922,-0.193,-0.1952,-0.2003,-0.2005,-0.2007,-0.2032,-0.2037,-0.2042,0,0,0,0,0,0,-0.1637,-0.1673,-0.1689,-0.1719,-0.1748,-0.1772,-0.1797,-0.1818,-0.1856,-0.187,-0.1884,-0.1892,-0.1937,-0.1943,-0.193,-0.1983,-0.1966,-0.197,-0.1983,-0.1987,-0.1991,-0.1979,-0.192,0,0,0,0,0,-0.1645,-0.1671,-0.1702,-0.1729,-0.1746,-0.1779,-0.1801,-0.1822,-0.1852,-0.1871,-0.19,-0.1927,-0.1947,-0.1967,-0.1986,-0.2024,-0.2006,-0.2041,-0.2045,-0.2048,-0.2043,-0.2034,-0.2036,-0.2014,-0.2014,-0.2014,0,0,-0.165,-0.1673,-0.169,-0.173,-0.1757,-0.1784,-0.1794,-0.1835,-0.1863,-0.1873,-0.193,-0.1947,-0.196,-0.1995,-0.2015,-0.2007,-0.2045,-0.205,-0.2053,-0.2046,-0.2036,-0.2038,-0.204,-0.2015,-0.2015,-0.2015,0,0,-0.1661,-0.1695,-0.1717,-0.1744,-0.1789,-0.1808,-0.1827,-0.187,-0.1897,-0.1947,-0.1955,-0.1983,-0.2033,-0.2033,-0.2041,-0.2079,-0.2065,-0.2094,-0.2107,-0.21,-0.2101,-0.2102,-0.2078,-0.2077,-0.2097,-0.2097,-0.2097,0,-0.1668,-0.1699,-0.1728,-0.1755,-0.1782,-0.1822,-0.1851,-0.1882,-0.1936,-0.1956,-0.1971,-0.2027,-0.2043,-0.2063,-0.2075,-0.2087,-0.2077,-0.2089,-0.2103,-0.2104,-0.2104,-0.208,-0.2078,-0.2098,-0.2098,-0.2098,-0.2098,0,-0.1684,-0.1723,-0.174,-0.1786,-0.1818,-0.1852,-0.1893,-0.1934,-0.1975,-0.1998,-0.2044,-0.2063,-0.2089,-0.2101,-0.2104,-0.2118,-0.2108,-0.2108,-0.2089,-0.2108,-0.2081,-0.2079,-0.2101,-0.21,-0.2099,-0.2099,0,0,-0.1661,-0.1737,-0.1746,-0.1775,-0.184,-0.1863,-0.1915,-0.196,-0.1992,-0.2042,-0.2075,-0.2107,-0.2117,-0.2125,-0.2132,-0.2129,-0.2125,-0.2127,-0.2125,-0.2097,-0.21,-0.197,-0.1955,-0.2133,-0.2133,-0.2133,-0.2078,0,-0.1667,-0.172,-0.1758,-0.1814,-0.1844,-0.1897,-0.1938,-0.1986,-0.2029,-0.2072,-0.209,-0.2125,-0.2126,-0.2145,-0.2142,-0.2138,-0.2121,-0.2139,-0.2091,-0.2089,-0.1965,-0.1948,-0.2133,-0.2076,-0.2076,-0.2075,-0.2075,0,-0.1661,-0.1701,-0.1757,-0.1829,-0.1848,-0.1889,-0.1958,-0.1999,-0.2057,-0.2091,-0.2123,-0.2143,-0.2157,-0.2154,-0.2135,-0.2152,-0.2124,-0.211,-0.2108,-0.1971,-0.1953,-0.2054,-0.207,-0.207,-0.207,-0.2071,-0.2071,0,-0.1613,-0.1694,-0.1741,-0.1768,-0.1855,-0.1894,-0.1941,-0.2007,-0.2039,-0.2104,-0.2129,-0.2152,-0.2165,-0.2148,-0.2123,-0.2136,-0.2088,-0.2099,-0.1946,-0.1937,-0.2061,-0.206,-0.2063,-0.2063,-0.2063,-0.2063,-0.2063,0,-0.1583,-0.1623,-0.1729,-0.1752,-0.1805,-0.1877,-0.1931,-0.1982,-0.2049,-0.207,-0.2133,-0.2135,-0.2167,-0.2147,-0.2122,-0.2013,-0.208,-0.193,-0.1907,-0.2074,-0.2076,-0.2058,-0.2059,-0.2061,-0.2061,-0.2062,-0.2062,0,-0.1513,-0.1587,-0.1644,-0.175,-0.1783,-0.1821,-0.1918,-0.1945,-0.2024,-0.2054,-0.2074,-0.2124,-0.2091,-0.2089,-0.2054,-0.1985,-0.1915,-0.1857,-0.2022,-0.2014,-0.1772,-0.1775,-0.1678,-0.1672,-0.1668,-0.1664,-0.1661,0,-0.1475,-0.1502,-0.1623,-0.1656,-0.1708,-0.1779,-0.1817,-0.1917,-0.1939,-0.2019,-0.201,-0.2022,-0.2032,-0.1861,-0.1892,-0.1809,-0.1788,-0.1741,-0.1761,-0.174,-0.173,-0.1739,-0.1748,-0.1654,-0.1653,-0.1652,-0.1651,0,-0.1398,-0.1459,-0.1505,-0.1573,-0.1629,-0.1674,-0.1738,-0.174,-0.1835,-0.193,-0.1877,-0.1843,-0.1796,-0.1757,-0.1696,-0.1648,-0.1771,-0.1695,-0.1704,-0.1722,-0.1711,-0.1707,-0.172,-0.1635,-0.1638,-0.1639,-0.164,0,-0.1337,-0.1351,-0.1421,-0.1461,-0.1531,-0.1536,-0.1589,-0.1599,-0.163,-0.1726,-0.1703,-0.1717,-0.1772,-0.167,-0.1623,-0.1556,-0.1535,-0.1485,-0.1505,-0.1522,-0.1497,-0.1462,-0.1269,0,0,0,0,0,-0.1264,-0.1264,-0.1298,-0.1334,-0.1398,-0.1429,-0.1515,-0.1569,-0.1667,-0.1579,-0.1633,-0.1581,-0.1506,-0.1522,-0.1415,-0.1555,-0.1546,-0.1426,-0.1502,-0.155,-0.1568,-0.1553,0,0,0,0,0,0,-0.1216,-0.1247,-0.1253,-0.1214,-0.1211,-0.1256,-0.1302,-0.1372,-0.1331,-0.1437,-0.1397,-0.1479,-0.1424,-0.1527,-0.1378,-0.1381,-0.1394,-0.145,-0.1445,-0.154,-0.1556,-0.1571,-0.1561,0,0,0,0,0]},{"header":{"parameterUnit":"m.s-1","parameterCategory":2,"la1":30.2991,"la2":30.254,"lo1":-89.0895,"lo2":-89.0444,"dy":0.0017,"dx":0.0017,"nx":28,"ny":28,"refTime":"2024-12-01T09:00:00:Z","depth":"4","parameterNumber":3,"parameterNumberName":"V-component_of_CURRENTS"},"data":[0,0,0,0,0,0,0,0,0,0,0,0,0,0,0,0,0,0,0,0,0,0,0,0,0,0,0,0,0,0,0,0,0,0,0,0,0,0,0,0,0,0,0,0,0,0,0,0,0,0,0,0,0,0,0,0,0,0,-0.0272,-0.0272,0,-0.0231,-0.0231,-0.023,-0.0196,-0.0196,-0.0196,-0.0195,-0.0107,-0.0105,-0.0103,0,0,0,0,0,0,0,0,0,0,0,0,0,-0.0284,-0.0284,-0.0272,-0.0272,-0.0272,-0.0231,-0.0231,-0.023,-0.0196,-0.0196,-0.0196,-0.0195,-0.0108,-0.0106,-0.0103,0,0,0,0,0,0,0,0,0,0,0,0,0,-0.0264,-0.0284,-0.0272,-0.0251,-0.0248,-0.0232,-0.0231,-0.023,-0.0196,-0.0196,-0.0195,-0.0195,-0.0109,-0.0106,-0.0103,-0.0091,0,0,-0.0093,-0.0092,0,0,0,0,0,0,0,0,-0.0265,-0.0263,-0.0254,-0.0252,-0.025,-0.0219,-0.0203,-0.0182,-0.0196,-0.0215,-0.0195,-0.0195,-0.0141,-0.0136,-0.0128,-0.0087,-0.0083,-0.0093,-0.0091,-0.009,-0.0089,0,0,0,0,0,0,0,-0.0266,-0.0265,-0.0255,-0.0254,-0.0251,-0.023,-0.0227,-0.0198,-0.0179,-0.0213,-0.0211,-0.0208,-0.014,-0.0131,-0.0126,-0.0082,-0.0093,-0.009,-0.0088,-0.0087,-0.0025,-0.0025,0,0,0,0,0,0,-0.0276,-0.0266,-0.0256,-0.0254,-0.0258,-0.0231,-0.0227,-0.0229,-0.018,-0.0173,-0.0209,-0.0207,-0.0137,-0.0129,-0.0122,-0.0102,-0.009,-0.0087,-0.0085,-0.0025,-0.0025,-0.0026,0,0,0,0,0,0,-0.0277,-0.0276,-0.0258,-0.026,-0.0256,-0.0231,-0.0233,-0.0228,-0.0222,-0.0178,-0.0169,-0.0208,-0.0136,-0.0127,-0.0103,-0.0098,-0.0085,-0.0082,-0.0025,-0.0025,-0.0025,-0.0063,0,0,0,0,0,0,-0.0277,-0.0276,-0.0284,-0.0261,-0.0256,-0.0254,-0.0233,-0.0228,-0.0221,-0.0219,-0.0175,-0.0166,-0.0135,-0.0108,-0.01,-0.0094,-0.008,-0.0024,-0.0025,-0.0025,-0.0062,-0.0065,-0.0068,0,0,0,0,0,-0.0278,-0.029,-0.0285,-0.0283,-0.0267,-0.0254,-0.025,-0.023,-0.0222,-0.0223,-0.0195,-0.0167,-0.0105,-0.0106,-0.0097,-0.0089,-0.0024,-0.0025,-0.0025,-0.0061,-0.0064,-0.0068,0,0,0,0,0,0,-0.0298,-0.0287,-0.0281,-0.0289,-0.0276,-0.0249,-0.025,-0.0236,-0.0216,-0.0214,-0.0171,-0.0161,-0.014,-0.0113,-0.0115,-0.0074,-0.006,-0.0058,-0.009,-0.0093,-0.0096,-0.0097,-0.0077,0,0,0,0,0,-0.0308,-0.0315,-0.0297,-0.0304,-0.03,-0.0277,-0.0271,-0.0258,-0.0236,-0.0227,-0.0196,-0.0164,-0.0134,-0.0114,-0.0088,-0.0064,-0.003,-0.0053,-0.0056,-0.0059,-0.0054,0.0002,0.0005,-0.0027,-0.0027,-0.0027,0,0,-0.0317,-0.0313,-0.0317,-0.0309,-0.0298,-0.0295,-0.0272,-0.0269,-0.0261,-0.022,-0.0204,-0.0177,-0.0133,-0.0109,-0.0095,-0.0084,-0.0035,-0.006,-0.0062,-0.0056,0.0002,0.0005,0.0008,-0.0028,-0.0028,-0.0028,0,0,-0.0339,-0.0338,-0.0349,-0.0342,-0.0331,-0.0316,-0.0318,-0.0296,-0.0281,-0.0266,-0.0233,-0.0201,-0.0164,-0.0123,-0.0099,-0.0101,-0.0058,-0.0098,-0.0104,-0.005,-0.0047,-0.0043,-0.0009,-0.0002,-0.0092,-0.0093,-0.0093,0,-0.0351,-0.0362,-0.035,-0.0356,-0.0353,-0.0328,-0.0334,-0.0315,-0.0288,-0.0271,-0.0268,-0.02,-0.0166,-0.0115,-0.0118,-0.0105,-0.0077,-0.0094,-0.0053,-0.0049,-0.0044,-0.0009,-0.0001,-0.0094,-0.0094,-0.0094,-0.0094,0,-0.0376,-0.0385,-0.0392,-0.0391,-0.0385,-0.0388,-0.0363,-0.0352,-0.0335,-0.0308,-0.0269,-0.0223,-0.0177,-0.0162,-0.0141,-0.0092,-0.0085,-0.0069,-0.0043,-0.0043,-0.0007,0.0002,-0.0097,-0.0096,-0.0096,-0.0095,0,0,-0.0401,-0.0409,-0.0412,-0.0418,-0.0405,-0.0403,-0.0391,-0.0365,-0.0351,-0.0317,-0.0288,-0.0233,-0.0205,-0.0176,-0.0138,-0.0089,-0.0041,-0.0071,-0.0068,-0.0036,0.0064,0.0045,0.0054,-0.0018,-0.0017,-0.0015,0.0072,0,-0.0424,-0.045,-0.0441,-0.0457,-0.0466,-0.0439,-0.043,-0.0401,-0.037,-0.0337,-0.0273,-0.0239,-0.0209,-0.0192,-0.0135,-0.0069,-0.0017,-0.0067,0.0059,0.0063,0.0047,0.0064,-0.001,0.008,0.0082,0.0083,0.0085,0,-0.0448,-0.0463,-0.049,-0.0492,-0.0492,-0.0498,-0.0475,-0.0461,-0.0401,-0.0376,-0.0318,-0.0272,-0.0196,-0.0177,-0.0044,-0.0081,-0.0012,0.0043,0.0049,0.0054,0.0062,0.0084,0.0102,0.0101,0.0099,0.0098,0.0097,0,-0.0475,-0.0493,-0.0518,-0.0521,-0.052,-0.0524,-0.052,-0.0477,-0.0463,-0.04,-0.0383,-0.0283,-0.0243,-0.0136,-0.0029,-0.0034,0.0113,0.0124,0.0178,0.0177,0.0185,0.018,0.0228,0.0228,0.0228,0.0227,0.0227,0,-0.0498,-0.0518,-0.054,-0.0555,-0.0583,-0.0565,-0.0574,-0.055,-0.0511,-0.0492,-0.041,-0.037,-0.0232,-0.0134,-0.0029,0.0097,0.0119,0.0183,0.0205,0.0163,0.0155,0.0191,0.0185,0.0231,0.023,0.0229,0.0229,0,-0.052,-0.0534,-0.0568,-0.0589,-0.0601,-0.0622,-0.0631,-0.0628,-0.0589,-0.0561,-0.0546,-0.0432,-0.0305,-0.0165,0.0009,0.0084,0.0213,0.0256,0.0189,0.0205,0.0241,0.0232,0.0326,0.0326,0.0327,0.0327,0.0327,0,-0.0531,-0.0554,-0.0606,-0.0638,-0.0654,-0.0684,-0.0703,-0.0676,-0.0667,-0.0595,-0.058,-0.046,-0.0371,-0.0136,0.0006,0.0206,0.0234,0.0291,0.028,0.0242,0.0254,0.0245,0.0237,0.0327,0.0327,0.0327,0.0327,0,-0.055,-0.0578,-0.0609,-0.0682,-0.0722,-0.0752,-0.0773,-0.0771,-0.0727,-0.0697,-0.059,-0.0461,-0.0317,-0.0135,0.0015,0.016,0.0248,0.0294,0.0294,0.0285,0.0245,0.0254,0.0246,0.0328,0.0328,0.0328,0.0328,0,-0.0565,-0.0599,-0.0654,-0.0709,-0.0768,-0.08,-0.0806,-0.078,-0.0759,-0.067,-0.0636,-0.0467,-0.0366,-0.0159,-0.0017,0.0117,0.0152,0.0189,0.0196,0.0197,0.0129,0.0057,0.0109,0,0,0,0,0,-0.0572,-0.0615,-0.0676,-0.0736,-0.0794,-0.0821,-0.084,-0.0831,-0.0794,-0.0722,-0.0672,-0.0529,-0.0302,-0.0198,-0.0065,-0.0028,0.0158,0.0129,0.0199,0.0331,0.033,0.027,0,0,0,0,0,0,-0.0579,-0.0641,-0.0674,-0.0743,-0.0786,-0.0838,-0.085,-0.0826,-0.077,-0.0715,-0.0587,-0.051,-0.0286,-0.0376,-0.0065,-0.0025,0.0034,0.0241,0.0243,0.0332,0.0331,0.033,0.0268,0,0,0,0,0]}]]